This is the latest recevied weather packets stored in our database for station/object IZ4UFQ-10. If no packets are shown the sender has not sent any weather packets the latest 10 day(s).
| Time | Temp. | Humidity | Pressure | Rain* | Wind** | Luminosity | Snow |
|---|---|---|---|---|---|---|---|
| 1777872879 | 17.22° C | 45% | 1016.6 hPa | 0 mm | - | 207 W/m² | - |
| 1777872579 | 17.22° C | 45% | 1016.7 hPa | 0 mm | - | 206 W/m² | - |
| 1777872278 | 17.22° C | 45% | 1016.7 hPa | 0 mm | - | 211 W/m² | - |
| 1777871978 | 17.22° C | 44% | 1016.6 hPa | 0 mm | - | 192 W/m² | - |
| 1777871678 | 16.67° C | 45% | 1016.6 hPa | 0 mm | - | 163 W/m² | - |
| 1777871377 | 16.67° C | 44% | 1016.5 hPa | 0 mm | - | 141 W/m² | - |
| 1777871077 | 16.67° C | 44% | 1016.5 hPa | 0 mm | - | 113 W/m² | - |
| 1777870777 | 16.67° C | 44% | 1016.5 hPa | 0 mm | - | 120 W/m² | - |
| 1777870477 | 16.67° C | 43% | 1016.5 hPa | 0 mm | - | 97 W/m² | - |
| 1777870176 | 16.67° C | 43% | 1016.5 hPa | 0 mm | - | 83 W/m² | - |
| 1777869876 | 16.67° C | 43% | 1016.4 hPa | 0 mm | - | 69 W/m² | - |
| 1777869576 | 16.67° C | 43% | 1016.4 hPa | 0 mm | - | 69 W/m² | - |
| 1777869275 | 16.67° C | 43% | 1016.4 hPa | 0 mm | - | 56 W/m² | - |
| 1777868975 | 16.67° C | 43% | 1016.3 hPa | 0 mm | - | 44 W/m² | - |
| 1777868675 | 16.11° C | 44% | 1016.3 hPa | 0 mm | - | 35 W/m² | - |
| 1777868375 | 16.11° C | 44% | 1016.2 hPa | 0 mm | - | 25 W/m² | - |
| 1777868074 | 15.56° C | 46% | 1016.2 hPa | 0 mm | - | 19 W/m² | - |
| 1777867774 | 15° C | 47% | 1016.1 hPa | 0 mm | - | 12 W/m² | - |
| 1777867474 | 15° C | 49% | 1016.2 hPa | 0 mm | - | 7 W/m² | - |
| 1777867173 | 15° C | 49% | 1016.2 hPa | 0 mm | - | 5 W/m² | - |
| 1777866873 | 15° C | 49% | 1016.3 hPa | 0 mm | - | 0 W/m² | - |
| 1777866573 | 15° C | 49% | 1016.2 hPa | 0 mm | - | 0 W/m² | - |
| 1777866273 | 15° C | 48% | 1016.2 hPa | 0 mm | - | 0 W/m² | - |
| 1777865972 | 15.56° C | 48% | 1016.3 hPa | 0 mm | - | 0 W/m² | - |
| 1777865672 | 15.56° C | 47% | 1016.3 hPa | 0 mm | - | 0 W/m² | - |
* Rain latest hour (hover to see other rain measurements)
** Current wind speed in m/s (hover to see current wind gust speed)